******************************************************************************* JPL/HORIZONS 90377 Sedna (2003 VB12) 2025-Dec-12 18:04:11 Rec #: 90377 (+COV) Soln.date: 2025-Nov-27_17:30:19 # obs: 637 (1990-2025) IAU76/J2000 helio. ecliptic osc. elements (au, days, deg., period=Julian yrs): EPOCH= 2458328.5 ! 2018-Jul-29.00 (TDB) Residual RMS= .094813 EC= .8414696730157953 QR= 76.1093494569478 TP= 2479541.0357321822 OM= 144.3871608549184 W= 311.5806110275184 IN= 11.92939822998816 A= 480.093310250543 MA= 358.0124952322913 ADIST= 884.0772710441381 PER= 10519.53842 N= 9.3695E-5 ANGMOM= .203649211 DAN= 89.93044 DDN= 317.41929 L= 96.58956670000001 B= -8.8948135 MOID= 75.13939667 TP= 2076-Aug-25.5357321822 Asteroid physical parameters (km, seconds, rotational period in hours): GM= n.a. RAD= n.a. ROTPER= 10.273 H= 1.49 G= .150 B-V= n.a. ALBEDO= n.a. STYP= n.a. ASTEROID comments: 1: soln ref.= JPL#49, OCC=1 2: source=ORB ******************************************************************************* ******************************************************************************* Ephemeris / WWW_USER Fri Dec 12 18:04:11 2025 Pasadena, USA / Horizons ******************************************************************************* Target body name: 90377 Sedna (2003 VB12) {source: JPL#49} Center body name: Sun (10) {source: DE441} Center-site name: BODYCENTRIC ******************************************************************************* Start time : A.D. 1746-Jul-01 00:00:00.0000 UT Stop time : A.D. 1746-Sep-01 00:00:00.0000 UT Step-size : 30 steps ******************************************************************************* Target pole/equ : undefined Target radii : undefined Center geodetic : 0.0, 0.0, -695700.0 {E-lon(deg),Lat(deg),Alt(km)} Center cylindric: 0.0, 0.0, 0.0 {E-lon(deg),Dxy(km),Dz(km)} Center pole/equ : IAU_SUN {East-longitude positive} Center radii : 695700.0, 695700.0, 695700.0 km {Equator_a, b, pole_c} Target primary : Sun Vis. interferer : None Rel. light bend : Sun {source: DE441} Rel. lght bnd GM: 1.3271E+11 km^3/s^2 Small-body perts: Yes {source: SB441-N16} Atmos refraction: NO (AIRLESS) RA format : HMS Time format : CAL Calendar mode : Mixed Julian/Gregorian EOP file : eop.251212.p260310 EOP coverage : DATA-BASED 1962-JAN-20 TO 2025-DEC-12. PREDICTS-> 2026-MAR-09 Units conversion: 1 au= 149597870.700 km, c= 299792.458 km/s, 1 day= 86400.0 s Table cut-offs 1: Elevation (-90.0deg=NO ),Airmass n.a. , Daylight (NO ) Table cut-offs 2: Solar elongation ( 0.0,180.0=NO ),Local Hour Angle( 0.0=NO ) Table cut-offs 3: RA/DEC angular rate ( 0.0=NO ) ******************************************************************************* Initial IAU76/J2000 heliocentric ecliptic osculating elements (au, days, deg.): EPOCH= 2458328.5 ! 2018-Jul-29.00 (TDB) Residual RMS= .094813 EC= .8414696730157953 QR= 76.1093494569478 TP= 2479541.0357321822 OM= 144.3871608549184 W= 311.5806110275184 IN= 11.92939822998816 Equivalent ICRF heliocentric cartesian coordinates (au, au/d): X= 4.604567922894311E+01 Y= 7.056430371298931E+01 Z= 1.144700862982662E+01 VX=-2.414853542542624E-03 VY= 5.650839325810575E-04 VZ= 4.390461018983610E-04 Asteroid physical parameters (km, seconds, rotational period in hours): GM= n.a. RAD= n.a. ROTPER= 10.273 H= 1.49 G= .150 B-V= n.a. ALBEDO= n.a. STYP= n.a. ********************************************************************************** Date__(UT)__HR:MN:SC.fff r rdot VmagSn VmagOb ********************************************************************************** $$SOE 1746-Jul-01 00:00:00.000 200.0424364919 -1.9862850 2.6584292 2.6584531 1746-Jul-03 01:36:00.000 200.0400656464 -1.9862866 2.6584696 2.6584934 1746-Jul-05 03:12:00.000 200.0376947974 -1.9862894 2.6585107 2.6585345 1746-Jul-07 04:48:00.000 200.0353239453 -1.9862919 2.6585518 2.6585756 1746-Jul-09 06:24:00.000 200.0329530902 -1.9862943 2.6585928 2.6586167 1746-Jul-11 08:00:00.000 200.0305822323 -1.9862966 2.6586340 2.6586582 1746-Jul-13 09:36:00.000 200.0282113717 -1.9862990 2.6586754 2.6587000 1746-Jul-15 11:12:00.000 200.0258405081 -1.9863015 2.6587172 2.6587423 1746-Jul-17 12:48:00.000 200.0234696415 -1.9863042 2.6587594 2.6587851 1746-Jul-19 14:24:00.000 200.0210987715 -1.9863072 2.6588021 2.6588284 1746-Jul-21 16:00:00.000 200.0187278977 -1.9863106 2.6588454 2.6588723 1746-Jul-23 17:36:00.000 200.0163570195 -1.9863144 2.6588893 2.6589168 1746-Jul-25 19:12:00.000 200.0139861365 -1.9863187 2.6589336 2.6589618 1746-Jul-27 20:48:00.000 200.0116152481 -1.9863234 2.6589786 2.6590073 1746-Jul-29 22:24:00.000 200.0092443539 -1.9863286 2.6590240 2.6590533 1746-Aug-01 00:00:00.000 200.0068734532 -1.9863342 2.6590700 2.6590998 1746-Aug-03 01:36:00.000 200.0045025455 -1.9863404 2.6591164 2.6591468 1746-Aug-05 03:12:00.000 200.0021316301 -1.9863470 2.6591634 2.6591942 1746-Aug-07 04:48:00.000 199.9997607066 -1.9863541 2.6592107 2.6592421 1746-Aug-09 06:24:00.000 199.9973897743 -1.9863616 2.6592586 2.6592904 1746-Aug-11 08:00:00.000 199.9950188327 -1.9863697 2.6593068 2.6593391 1746-Aug-13 09:36:00.000 199.9926478812 -1.9863783 2.6593555 2.6593882 1746-Aug-15 11:12:00.000 199.9902769191 -1.9863873 2.6594046 2.6594377 1746-Aug-17 12:48:00.000 199.9879059460 -1.9863968 2.6594540 2.6594876 1746-Aug-19 14:24:00.000 199.9855349612 -1.9864069 2.6595038 2.6595378 1746-Aug-21 16:00:00.000 199.9831639642 -1.9864174 2.6595540 2.6595884 1746-Aug-23 17:36:00.000 199.9807929543 -1.9864284 2.6596045 2.6596393 1746-Aug-25 19:12:00.000 199.9784219310 -1.9864399 2.6596554 2.6596905 1746-Aug-27 20:48:00.000 199.9760508937 -1.9864518 2.6597066 2.6597420 1746-Aug-29 22:24:00.000 199.9736798418 -1.9864643 2.6597581 2.6597938 1746-Sep-01 00:00:00.000 199.9713087747 -1.9864773 2.6598098 2.6598459 $$EOE ********************************************************************************** Column meaning: TIME Times PRIOR to 1962 are UT1, a mean-solar time closely related to the prior but now-deprecated GMT. Times AFTER 1962 are in UTC, the current civil or "wall-clock" time-scale. UTC is kept within 0.9 seconds of UT1 using integer leap-seconds for 1972 and later years. Conversion from the internal Barycentric Dynamical Time (TDB) of solar system dynamics to the non-uniform civil UT time-scale requested for output has not been determined for UTC times after the next July or January 1st. Therefore, the last known leap-second is used as a constant over future intervals. Time tags refer to the UT time-scale conversion from TDB on Earth regardless of observer location within the solar system, although clock rates may differ due to the local gravity field and no analog to "UT" may be defined for that location. Any 'b' symbol in the 1st-column denotes a B.C. date. First-column blank (" ") denotes an A.D. date. CALENDAR SYSTEM Mixed calendar mode was active such that calendar dates after AD 1582-Oct-15 (if any) are in the modern Gregorian system. Dates prior to 1582-Oct-5 (if any) are in the Julian calendar system, which is automatically extended for dates prior to its adoption on 45-Jan-1 BC. The Julian calendar is useful for matching historical dates. The Gregorian calendar more accurately corresponds to the Earth's orbital motion and seasons. A "Gregorian-only" calendar mode is available if such physical events are the primary interest. NOTE: "n.a." in output means quantity "not available" at the print-time. 'r rdot' = The Sun's apparent range ("r", light-time aberrated) and range-rate ("rdot") relative to the target center, as seen by the observer. A positive "rdot" means the target center was moving away from the Sun, negative means moving toward the Sun. Units: AU and KM/S 'VmagSn VmagOb' = Magnitude of target centers' velocity with respect to the Sun ("VmagSn") and the observer ("VmagOb") at the time light left the target center to be observed (print time minus down-leg light-time). These are absolute values of the velocity vectors (total speeds) and do NOT indicate direction of motion. Units: KM/S Computations by ... Solar System Dynamics Group, Horizons On-Line Ephemeris System 4800 Oak Grove Drive, Jet Propulsion Laboratory Pasadena, CA 91109 USA General site: https://ssd.jpl.nasa.gov/ Mailing list: https://ssd.jpl.nasa.gov/email_list.html System news : https://ssd.jpl.nasa.gov/horizons/news.html User Guide : https://ssd.jpl.nasa.gov/horizons/manual.html Connect : browser https://ssd.jpl.nasa.gov/horizons/app.html#/x API https://ssd-api.jpl.nasa.gov/doc/horizons.html command-line telnet ssd.jpl.nasa.gov 6775 e-mail/batch https://ssd.jpl.nasa.gov/ftp/ssd/horizons_batch.txt scripts https://ssd.jpl.nasa.gov/ftp/ssd/SCRIPTS Author : Jon.D.Giorgini@jpl.nasa.gov ********************************************************************************** !$$SOF CENTER = '@Sun' COMMAND = 'Sedna' QUANTITIES = '19,22' START_TIME = '1746-07-01' STEP_SIZE = '30' STOP_TIME = '1746-09-01'